Temperature
9 9 10 10 10 10 10 10 10 10 10 10 10 10 10 10 10 10 10 10 10 10 10 10 9 9 9 10 10 10 10 10 10 10 10 10 10 10 10 10 10 10 10
8 9 9 9 9 10 10 10 10 10 10 10 10 10 10 10 9 9 9 9 9 9 9 9 9 9 9 9 9 9 9 10 10 10 10 10 10 10 10 10 10 10 10
8 8 8 8 9 9 9 9 9 9 9 9 9 9 9 9 9 9 9 9 9 9 9 9 9 9 9 9 9 9 9 9 9 9 9 9 9 9 9 9 9 9 9
7 7 8 8 8 8 8 9 9 9 9 9 9 9 9 9 8 8 8 8 8 8 8 8 8 9 8 8 8 8 9 9 9 9 9 9 9 9 9 9 9 9 9
7 7 7 7 7 8 8 8 8 8 8 8 8 8 8 8 8 8 8 8 8 8 8 8 8 8 8 8 8 8 8 8 8 8 8 8 8 8 8 8 8 8 8
6 6 6 6 7 7 7 7 7 7 7 7 7 7 7 7 7 7 7 7 7 7 7 7 7 7 7 7 7 7 7 8 8 8 8 8 8 8 8 8 8 8 8
5 5 5 6 6 6 6 6 6 6 7 7 7 7 7 7 7 7 7 7 7 7 7 7 7 7 7 7 7 7 7 7 7 7 7 7 7 7 7 7 8 8 8
5 5 5 5 5 5 5 6 6 6 6 6 6 6 6 6 6 6 6 6 6 6 6 6 6 6 6 6 6 6 6 6 6 6 6 6 7 7 7 7 7 7 7
4 4 4 4 4 5 5 5 5 5 5 5 5 5 5 5 5 5 6 6 6 6 6 5 6 6 6 6 6 6 6 6 6 6 6 6 6 6 6 6 6 6 6
3 3 3 4 4 4 4 4 4 4 4 4 4 5 5 5 4 5 5 5 5 5 5 5 5 5 5 5 5 5 5 5 5 5 5 5 5 5 5 5 5 5 6
2 3 3 3 3 3 3 3 3 3 3 3 4 4 4 4 4 4 4 5 5 5 5 5 5 5 5 5 5 5 5 5 5 5 4 4 4 4 5 5 5 5 5
2 2 2 2 2 2 3 3 3 3 3 3 3 3 3 3 4 3 3 3 4 4 4 4 4 4 4 4 4 4 4 4 4 4 4 4 4 4 4 4 4 4 4
1 2 2 2 2 2 2 2 2 2 2 2 2 2 2 3 3 3 3 2 2 3 3 4 4 4 4 4 4 4 4 4 4 4 4 4 4 4 4 4 4 4 4
1 1 1 1 1 1 1 1 1 1 1 1 1 1 2 2 2 2 2 2 1 2 2 3 3 3 3 3 3 3 3 3 3 3 3 3 3 3 3 3 3 3 3
0 0 0 0 1 1 1 1 1 1 1 1 1 1 1 1 1 1 1 1 1 1 1 2 2 3 2 2 2 2 2 3 3 3 3 3 3 3 3 3 3 3 3
-1 -0 -0 -0 0 0 0 0 -0 -0 -0 0 0 0 0 0 0 1 1 1 0 0 0 1 1 2 2 2 2 2 2 2 2 2 2 2 2 2 2 2 2 2 2
-1 -1 -1 -1 -1 -1 -1 -1 -1 -1 -1 -1 -1 -1 -1 -0 -0 -0 -0 -0 -0 -0 -0 0 1 1 1 1 1 1 1 1 1 1 1 1 1 1 1 1 2 2 2
-2 -2 -2 -2 -2 -2 -1 -1 -1 -1 -1 -1 -1 -1 -1 -1 -1 -1 -1 -1 -1 -1 -1 -1 0 0 1 1 1 1 1 1 1 1 1 1 1 1 1 1 1 1 1
-3 -3 -3 -3 -2 -2 -2 -2 -2 -2 -2 -2 -2 -2 -2 -2 -2 -1 -1 -1 -1 -1 -1 -1 -1 -0 -0 -0 -0 0 0 0 0 0 -0 -0 0 0 -0 0 0 0 1
-4 -4 -3 -3 -3 -3 -3 -3 -3 -3 -3 -3 -3 -3 -2 -2 -2 -2 -2 -2 -2 -2 -2 -2 -2 -1 -1 -1 -1 -1 -1 -1 -0 -1 -1 -1 -1 -0 -0 -0 -0 -0 -0
-5 -4 -4 -4 -4 -4 -4 -4 -4 -4 -3 -3 -3 -3 -3 -3 -3 -3 -3 -3 -3 -3 -3 -2 -2 -2 -2 -2 -2 -2 -2 -2 -1 -1 -1 -1 -1 -1 -1 -1 -1 -1 -1
-5 -5 -5 -5 -5 -5 -5 -5 -5 -5 -4 -4 -4 -4 -4 -4 -3 -4 -3 -3 -3 -3 -3 -3 -3 -3 -3 -2 -2 -3 -3 -3 -3 -2 -2 -2 -2 -2 -2 -2 -1 -1 -1
-6 -6 -6 -6 -6 -6 -5 -5 -5 -5 -5 -5 -5 -5 -5 -4 -4 -4 -4 -4 -4 -4 -4 -4 -4 -3 -3 -3 -3 -4 -4 -4 -3 -3 -3 -3 -2 -2 -2 -2 -2 -2 -2
-7 -7 -7 -7 -6 -6 -6 -6 -6 -6 -6 -6 -6 -6 -5 -5 -5 -5 -5 -4 -4 -4 -4 -4 -4 -4 -4 -4 -4 -4 -4 -4 -4 -4 -4 -4 -3 -3 -3 -3 -3 -3 -3
-8 -8 -7 -7 -7 -7 -7 -7 -7 -7 -7 -7 -6 -6 -6 -6 -6 -6 -6 -5 -5 -5 -5 -5 -5 -5 -5 -5 -5 -5 -5 -5 -5 -4 -4 -5 -4 -4 -4 -3 -3 -3 -3
-8 -8 -8 -8 -8 -8 -8 -8 -8 -8 -8 -8 -7 -7 -7 -7 -7 -6 -6 -6 -6 -5 -5 -5 -5 -5 -5 -5 -5 -5 -5 -5 -5 -5 -5 -5 -5 -5 -5 -4 -4 -4 -4
Wind_Speed
5 6 6 6 7 7 7 7 6 7 7 7 7 8 7 7 7 7 7 8 8 8 8 8 8 8 9 9 9 9 9 9 9 9 8 9 9 9 8 7 7 7 7
5 5 5 5 6 6 5 6 5 5 5 6 6 6 6 7 7 7 7 7 7 7 7 7 7 7 7 8 8 8 8 8 7 7 7 7 7 7 8 8 7 6 6
5 5 4 4 4 5 6 6 6 5 5 5 5 5 5 6 6 6 6 6 6 7 7 7 6 6 6 6 6 6 7 6 6 6 6 6 6 6 6 6 6 6 5
5 5 4 3 4 5 5 4 4 3 3 3 2 3 4 4 5 5 5 5 5 6 6 6 6 6 6 5 5 5 5 5 5 5 5 5 5 4 4 4 4 4 5
5 5 4 3 4 5 4 3 3 2 2 2 2 2 3 3 3 4 5 5 5 5 5 6 6 6 6 5 5 4 4 4 4 4 4 4 4 4 4 3 4 4 4
4 5 4 4 4 4 3 3 3 3 2 2 2 2 2 2 3 3 3 4 5 5 5 5 5 5 5 5 4 3 3 3 3 3 3 3 3 3 3 3 4 4 4
3 4 3 3 3 3 2 2 2 2 2 1 2 2 2 2 2 2 2 3 4 4 4 4 4 4 3 4 3 2 2 1 1 1 2 1 1 1 2 2 2 3 3
2 3 3 2 2 2 2 2 2 1 1 1 2 2 0 1 1 1 1 1 2 3 3 3 3 3 2 2 2 3 3 2 1 1 1 1 1 2 2 2 3 3 3
1 2 2 2 2 2 1 1 2 2 1 0 1 2 3 3 1 1 0 0 0 1 1 1 2 1 1 1 1 2 3 3 3 3 3 3 3 3 3 3 3 4 4
1 2 2 2 2 2 1 2 2 1 2 1 1 1 1 2 2 1 1 1 1 1 1 1 1 1 1 1 1 2 3 3 3 3 4 4 4 5 5 4 4 4 5
0 1 2 2 2 2 2 2 2 2 1 2 1 0 0 1 1 2 2 2 1 2 2 2 2 2 2 1 1 2 3 4 4 5 5 5 6 6 6 6 6 6 6
1 1 1 2 2 2 2 3 3 3 2 2 1 1 1 1 2 2 3 3 3 2 2 3 3 3 3 2 3 3 4 4 5 6 6 7 7 7 7 7 8 8 7
2 2 2 2 2 3 3 3 3 3 3 3 3 2 2 2 1 2 2 2 2 2 2 2 4 5 5 4 4 4 5 5 6 7 8 8 8 8 8 8 8 8 9
3 3 3 3 3 3 3 3 3 3 3 3 4 3 3 3 2 2 2 2 2 3 3 4 3 6 5 5 6 5 5 7 7 8 9 9 8 8 8 8 8 9 9
2 3 3 3 3 3 3 3 3 4 4 4 4 4 4 3 3 3 3 3 4 4 5 4 3 4 6 7 7 7 7 9 9 10 10 10 9 9 9 9 9 9 9
3 3 3 3 3 3 3 3 3 4 4 5 4 5 5 4 4 4 4 3 4 5 5 3 4 3 5 7 9 9 9 10 11 11 11 10 10 10 10 10 9 9 9
3 3 3 3 3 3 4 4 5 4 5 5 5 6 6 5 4 4 4 4 5 5 7 5 3 3 4 5 7 9 10 9 10 11 11 11 11 11 11 11 11 11 10
3 4 4 4 4 4 4 5 6 6 6 7 7 6 8 6 6 5 5 7 6 6 6 7 5 3 5 5 5 6 7 8 9 11 12 12 12 12 12 11 11 11 11
4 4 4 4 5 5 5 5 6 7 7 7 8 8 8 7 7 6 6 7 6 6 6 6 6 3 3 4 4 4 5 6 8 10 11 12 12 12 12 12 12 11 11
4 4 4 5 5 5 6 6 6 6 7 8 8 8 8 9 9 8 7 8 7 7 6 6 6 4 4 3 4 4 4 4 5 7 10 11 12 13 12 12 13 12 12
4 4 5 5 5 5 6 6 6 7 7 7 7 8 9 10 12 10 8 7 7 7 6 6 6 4 4 4 5 4 5 4 4 5 5 7 8 8 10 11 12 13 13
4 4 5 5 6 6 8 10 8 7 7 7 7 7 8 10 12 14 15 13 11 9 8 7 6 7 7 6 5 5 4 4 5 3 4 5 5 6 8 10 12 13 13
5 5 5 6 7 8 10 11 10 7 7 7 7 7 7 8 10 8 11 13 13 14 14 10 9 9 8 7 7 6 6 6 7 4 3 5 4 6 8 11 13 14 14
5 5 6 6 7 8 10 11 10 7 7 7 7 7 8 7 8 8 8 8 9 9 11 10 9 9 9 9 9 9 8 6 4 4 5 5 4 5 6 9 12 13 13
5 6 6 6 6 8 10 10 9 5 6 7 7 7 8 8 11 11 9 9 9 8 11 13 14 13 13 13 11 6 5 5 6 5 4 4 4 3 4 6 10 13 14
5 6 6 6 6 6 9 9 9 5 6 6 6 7 10 10 11 12 9 8 9 8 7 8 9 10 9 10 12 9 7 7 5 4 5 5 4 2 3 4 5 8 10
Wind_Direction
75 69 64 65 62 66 69 65 73 79 76 74 78 82 79 75 71 69 63 70 80 89 93 93 91 91 89 85 81 79 82 82 81 79 78 78 75 72 73 73 68 65 66
88 79 69 63 60 62 70 76 76 86 80 81 76 76 77 78 76 73 67 66 72 81 88 90 92 92 92 89 83 78 78 79 79 79 78 77 75 73 70 68 66 62 59
91 88 78 66 58 62 70 76 69 80 84 81 74 67 69 71 75 73 71 70 72 75 81 84 84 88 89 87 85 80 78 78 78 78 78 77 74 70 65 66 65 61 56
88 87 82 72 72 74 73 80 73 69 78 81 76 62 58 64 66 73 74 72 74 77 79 82 77 77 79 82 83 82 77 77 79 80 79 75 69 66 60 55 58 60 58
88 85 79 74 81 76 70 80 62 71 93 91 96 77 57 56 53 66 68 69 75 83 83 80 76 74 75 77 77 76 74 73 75 79 78 75 66 61 55 48 44 46 44
95 90 79 68 73 76 66 73 69 53 71 105 101 72 49 47 51 53 61 67 71 79 85 85 79 71 68 66 64 60 62 70 69 72 72 69 63 59 52 46 42 39 34
104 100 91 79 72 74 64 86 82 73 46 62 101 68 27 40 51 39 49 72 69 71 77 78 78 77 65 50 44 33 19 42 51 61 56 48 34 33 19 15 6 13 19
118 118 115 111 96 81 63 72 80 97 52 35 127 131 124 337 360 1 23 77 68 69 64 61 66 69 62 41 18 3 339 317 289 270 287 314 324 319 306 315 321 322 330
158 140 137 132 126 125 136 138 124 123 158 327 11 141 157 208 234 306 304 90 99 80 61 53 41 36 45 14 353 338 324 309 296 283 272 274 279 284 294 296 299 306 313
189 168 157 153 155 151 159 181 148 146 152 184 325 353 122 156 168 224 270 264 256 237 270 314 308 285 269 295 301 325 324 315 303 301 294 286 282 277 278 283 286 294 303
255 203 174 168 175 178 188 186 171 172 172 184 191 309 46 50 125 176 227 245 274 251 257 259 244 245 243 234 279 307 313 296 290 286 291 296 298 292 286 282 279 280 285
303 275 230 196 198 196 202 201 192 188 192 187 191 201 211 203 192 180 209 223 245 259 263 247 229 229 233 226 251 286 300 296 287 281 281 283 287 294 298 294 284 277 278
271 262 251 228 222 222 218 208 200 205 206 199 204 221 233 246 212 199 205 218 242 265 259 244 231 227 229 233 250 273 282 287 288 284 281 280 282 286 289 290 289 288 282
255 253 236 234 236 232 225 215 218 224 213 217 218 221 232 247 233 219 201 190 240 264 249 245 236 225 224 235 248 263 272 279 283 282 281 279 278 281 280 285 288 284 285
280 256 243 241 238 232 229 222 225 229 226 228 229 227 233 241 236 227 218 202 199 232 245 233 228 221 232 241 252 258 262 271 273 275 275 275 276 276 277 278 281 284 284
292 271 253 246 246 236 228 226 241 233 228 234 234 231 235 236 237 225 220 219 214 218 242 233 228 234 239 248 249 250 255 265 265 269 271 272 272 272 273 273 275 277 278
287 281 262 253 250 245 236 231 238 237 233 237 237 233 240 236 234 229 218 216 221 217 242 260 253 245 232 237 252 252 252 253 256 262 265 268 268 266 267 268 268 268 269
284 276 270 258 253 250 241 236 240 242 238 239 240 239 242 237 236 233 222 221 223 219 228 250 257 244 239 234 235 243 254 252 252 257 262 264 263 263 264 266 266 266 266
287 286 280 267 259 253 246 244 242 241 239 240 239 237 240 235 241 240 231 227 226 228 225 236 250 245 244 237 239 253 252 253 254 256 260 259 260 261 262 264 266 266 266
285 281 277 273 268 260 254 252 251 250 247 247 245 242 240 234 237 240 238 232 225 225 227 232 242 243 241 231 221 237 255 243 253 257 258 259 262 261 259 262 264 265 265
290 284 283 279 277 266 256 252 250 251 252 253 250 246 246 244 243 241 241 234 226 226 226 231 239 244 243 225 225 225 248 259 252 242 249 254 254 253 254 257 260 262 262
294 287 280 279 276 273 271 265 259 252 250 252 255 253 251 250 251 252 252 248 236 230 227 230 237 238 238 230 225 229 238 252 263 223 224 255 241 248 250 251 256 259 258
298 292 284 277 274 275 277 275 268 262 254 252 251 254 260 256 256 252 257 254 250 245 235 230 236 236 234 222 216 227 228 237 249 224 218 256 239 253 254 257 260 257 256
288 286 286 281 278 281 281 278 276 267 260 256 252 249 252 254 252 249 251 251 252 249 243 237 236 237 234 223 216 223 228 240 256 235 214 245 240 250 260 257 259 257 259
289 286 285 284 281 284 284 279 278 270 264 264 261 257 254 251 257 257 254 250 254 257 255 251 249 249 248 241 230 221 218 229 251 243 207 226 242 258 262 257 253 257 258
283 285 288 287 283 284 286 283 275 263 264 267 266 262 260 259 261 259 251 245 250 252 249 253 253 255 251 243 236 223 217 225 239 246 209 209 226 230 269 259 247 248 252
Height
1537 1538 1540 1541 1542 1543 1543 1544 1546 1547 1548 1550 1551 1553 1554 1555 1557 1558 1559 1560 1561 1562 1562 1563 1564 1565 1565 1566 1566 1566 1567 1568 1568 1568 1569 1569 1569 1569 1569 1570 1570 1570 1570
1536 1537 1538 1539 1540 1541 1542 1543 1544 1545 1547 1548 1550 1551 1553 1554 1555 1557 1558 1559 1560 1561 1562 1562 1563 1564 1565 1565 1565 1566 1566 1567 1567 1568 1568 1568 1568 1569 1569 1569 1569 1569 1569
1534 1535 1536 1537 1538 1539 1540 1541 1542 1544 1545 1547 1548 1550 1551 1552 1554 1555 1556 1557 1559 1560 1560 1561 1562 1563 1563 1564 1564 1565 1565 1565 1566 1566 1567 1567 1567 1568 1568 1568 1568 1568 1568
1532 1534 1534 1535 1536 1537 1538 1539 1540 1542 1543 1545 1546 1548 1549 1551 1552 1553 1554 1556 1557 1558 1559 1559 1560 1561 1562 1562 1563 1563 1564 1564 1564 1565 1565 1566 1566 1566 1566 1567 1567 1567 1567
1530 1531 1532 1533 1534 1535 1536 1537 1538 1540 1541 1542 1544 1546 1547 1548 1550 1551 1552 1553 1555 1556 1557 1558 1558 1559 1560 1560 1561 1561 1562 1563 1563 1563 1563 1564 1564 1565 1565 1565 1565 1566 1566
1527 1529 1530 1531 1531 1532 1534 1535 1536 1538 1539 1540 1542 1543 1545 1546 1547 1548 1550 1551 1552 1553 1554 1555 1556 1557 1558 1558 1559 1559 1560 1561 1561 1561 1562 1562 1562 1563 1563 1563 1564 1564 1564
1525 1526 1527 1528 1529 1530 1531 1533 1534 1535 1537 1538 1540 1541 1542 1543 1544 1546 1547 1548 1549 1550 1552 1553 1554 1554 1555 1556 1557 1557 1558 1558 1559 1559 1559 1560 1560 1561 1561 1561 1562 1562 1562
1522 1523 1524 1525 1526 1527 1528 1530 1531 1532 1534 1535 1536 1538 1539 1541 1541 1542 1544 1545 1546 1547 1549 1550 1551 1552 1552 1553 1554 1555 1555 1556 1556 1557 1557 1558 1558 1558 1558 1559 1559 1559 1559
1519 1520 1521 1522 1523 1524 1525 1526 1528 1529 1531 1532 1534 1535 1536 1536 1537 1539 1540 1542 1543 1544 1545 1547 1547 1548 1549 1550 1551 1551 1552 1552 1553 1554 1554 1555 1555 1555 1556 1556 1556 1556 1556
1516 1517 1518 1519 1520 1521 1522 1523 1524 1526 1527 1529 1530 1531 1533 1533 1534 1534 1536 1538 1539 1540 1542 1543 1544 1545 1546 1546 1547 1548 1548 1549 1550 1550 1551 1551 1552 1552 1552 1552 1552 1553 1553
1512 1513 1514 1515 1516 1517 1518 1519 1520 1522 1523 1525 1526 1527 1528 1529 1530 1531 1531 1533 1534 1536 1537 1538 1539 1540 1541 1542 1543 1543 1544 1545 1546 1546 1547 1547 1548 1548 1548 1548 1548 1549 1549
1508 1510 1511 1512 1513 1514 1514 1515 1517 1518 1519 1521 1522 1523 1525 1525 1526 1527 1527 1527 1529 1531 1532 1534 1535 1536 1537 1538 1538 1539 1540 1540 1541 1542 1542 1542 1543 1543 1543 1544 1544 1544 1544
1504 1506 1507 1508 1509 1510 1510 1511 1512 1513 1515 1516 1517 1519 1520 1521 1522 1523 1523 1523 1524 1525 1526 1528 1530 1531 1532 1533 1534 1534 1535 1536 1536 1537 1537 1537 1538 1538 1539 1539 1539 1539 1540
1501 1502 1503 1504 1505 1505 1506 1507 1508 1509 1510 1511 1512 1514 1515 1516 1518 1519 1520 1520 1519 1520 1520 1522 1524 1525 1527 1528 1529 1529 1530 1531 1531 1531 1532 1532 1532 1533 1533 1533 1534 1534 1534
1497 1498 1498 1499 1500 1501 1501 1502 1503 1504 1505 1506 1507 1509 1510 1511 1512 1514 1515 1516 1517 1515 1514 1515 1517 1519 1521 1522 1523 1524 1524 1525 1526 1526 1526 1527 1527 1527 1528 1528 1528 1529 1529
1492 1493 1493 1494 1495 1496 1497 1497 1498 1499 1500 1501 1502 1503 1504 1505 1506 1508 1509 1510 1511 1511 1510 1510 1512 1513 1515 1516 1517 1518 1519 1519 1520 1520 1521 1521 1521 1522 1522 1523 1523 1523 1523
1488 1488 1488 1489 1490 1490 1491 1492 1493 1494 1494 1495 1496 1497 1498 1500 1500 1502 1502 1503 1505 1506 1504 1504 1506 1508 1509 1510 1511 1512 1513 1513 1514 1514 1515 1515 1515 1516 1516 1517 1517 1517 1517
1483 1483 1483 1484 1485 1485 1486 1486 1487 1488 1488 1489 1490 1491 1492 1493 1494 1495 1496 1497 1498 1499 1499 1498 1499 1501 1502 1503 1504 1505 1506 1507 1507 1508 1509 1509 1509 1510 1510 1510 1511 1511 1511
1477 1478 1478 1478 1479 1479 1480 1480 1481 1481 1482 1483 1484 1484 1485 1487 1487 1488 1489 1490 1491 1492 1492 1492 1492 1494 1495 1497 1498 1499 1499 1500 1501 1502 1502 1503 1503 1503 1504 1504 1504 1504 1504
1472 1472 1473 1473 1473 1473 1473 1474 1474 1475 1475 1476 1477 1478 1478 1479 1480 1481 1482 1483 1484 1485 1486 1486 1486 1486 1488 1489 1491 1491 1492 1493 1494 1495 1496 1496 1496 1497 1497 1497 1497 1498 1498
1467 1467 1467 1467 1467 1467 1467 1468 1468 1469 1469 1469 1470 1471 1471 1472 1473 1474 1475 1476 1477 1478 1479 1479 1479 1480 1481 1482 1483 1485 1485 1486 1487 1488 1488 1489 1490 1490 1490 1490 1490 1491 1491
1462 1462 1461 1461 1461 1461 1462 1462 1463 1463 1463 1463 1463 1464 1464 1465 1466 1467 1468 1469 1470 1471 1471 1472 1472 1473 1474 1476 1477 1478 1479 1479 1479 1481 1481 1482 1483 1482 1483 1483 1484 1484 1484
1457 1456 1456 1456 1455 1455 1456 1456 1456 1457 1456 1456 1456 1457 1457 1458 1459 1460 1460 1461 1462 1463 1465 1466 1465 1465 1467 1469 1470 1471 1472 1472 1472 1474 1475 1474 1475 1475 1476 1476 1477 1477 1477
1452 1451 1451 1450 1449 1449 1449 1449 1450 1450 1449 1449 1449 1450 1450 1451 1452 1453 1453 1454 1454 1455 1457 1458 1458 1459 1461 1462 1464 1465 1465 1466 1466 1467 1468 1467 1467 1468 1469 1470 1470 1470 1470
1447 1446 1445 1444 1444 1443 1443 1443 1443 1443 1442 1442 1443 1443 1443 1444 1445 1446 1447 1447 1447 1448 1450 1451 1451 1452 1453 1455 1457 1458 1458 1458 1457 1459 1461 1461 1460 1461 1461 1462 1463 1463 1463
1442 1441 1440 1439 1438 1438 1437 1437 1437 1437 1436 1436 1436 1436 1437 1437 1438 1439 1440 1440 1440 1440 1442 1443 1444 1445 1446 1447 1449 1450 1451 1451 1451 1452 1453 1455 1454 1455 1454 1454 1455 1456 1456